contact:dominique.lefevre@mio.osupytheas.fr, maurice.libes@osupytheas.fr, didier.mallarino@osupytheas.fr
Project:EMSO http://www.emso-fr.org/EMSO-France
Depth: 2436.0 m
Title:EMSO Ligure Ouest : Data MII capteur MICROCAT
DateTime_Computer,Latitude,Longitude,Temperature,Conductivity,Pressure,DateTime_Instrument
DateTime_Computer,Latitude,Longitude,degC,S m-1,dbar,DateTime_Instrument
2024-05-05T00:02:34Z,42.805,6.029,13.3046,4.60132,2470.777,2024-5-05T02:05:16Z
2024-05-05T00:05:38Z,42.805,6.029,13.3043,4.60135,2470.787,2024-5-05T02:08:19Z
2024-05-05T00:08:41Z,42.805,6.029,13.3043,4.60135,2470.787,2024-5-05T02:11:22Z
2024-05-05T00:11:44Z,42.805,6.029,13.3046,4.60134,2470.8,2024-5-05T02:14:25Z
2024-05-05T00:14:47Z,42.805,6.029,13.3043,4.60133,2470.787,2024-5-05T02:17:29Z
2024-05-05T00:17:50Z,42.805,6.029,13.3043,4.60134,2470.8,2024-5-05T02:20:32Z
2024-05-05T00:20:53Z,42.805,6.029,13.3041,4.60134,2470.833,2024-5-05T02:23:35Z
2024-05-05T00:23:56Z,42.805,6.029,13.3043,4.60134,2470.8,2024-5-05T02:26:38Z
2024-05-05T00:26:59Z,42.805,6.029,13.3044,4.60133,2470.81,2024-5-05T02:29:41Z
2024-05-05T00:30:02Z,42.805,6.029,13.3041,4.60135,2470.824,2024-5-05T02:32:44Z
2024-05-05T00:33:05Z,42.805,6.029,13.3043,4.60134,2470.824,2024-5-05T02:35:47Z
2024-05-05T00:36:08Z,42.805,6.029,13.3044,4.60133,2470.787,2024-5-05T02:38:50Z
2024-05-05T00:39:11Z,42.805,6.029,13.3043,4.60133,2470.81,2024-5-05T02:41:53Z
2024-05-05T00:42:14Z,42.805,6.029,13.3046,4.60133,2470.81,2024-5-05T02:44:56Z
2024-05-05T00:45:18Z,42.805,6.029,13.3046,4.60137,2470.857,2024-5-05T02:47:59Z
2024-05-05T00:48:21Z,42.805,6.029,13.3046,4.60133,2470.824,2024-5-05T02:51:02Z
2024-05-05T00:51:24Z,42.805,6.029,13.3044,4.60134,2470.81,2024-5-05T02:54:05Z
2024-05-05T00:54:27Z,42.805,6.029,13.3046,4.60133,2470.81,2024-5-05T02:57:09Z
2024-05-05T00:57:30Z,42.805,6.029,13.3047,4.60134,2470.833,2024-5-05T03:00:12Z
2024-05-05T01:00:33Z,42.805,6.029,13.3044,4.60133,2470.833,2024-5-05T03:03:15Z
2024-05-05T01:03:36Z,42.805,6.029,13.3044,4.60134,2470.81,2024-5-05T03:06:18Z
2024-05-05T01:06:39Z,42.805,6.029,13.3046,4.60132,2470.857,2024-5-05T03:09:21Z
2024-05-05T01:09:42Z,42.805,6.029,13.3043,4.60132,2470.796,2024-5-05T03:12:24Z
2024-05-05T01:12:45Z,42.805,6.029,13.3044,4.60133,2470.857,2024-5-05T03:15:27Z
2024-05-05T01:15:48Z,42.805,6.029,13.3044,4.60134,2470.833,2024-5-05T03:18:30Z
2024-05-05T01:18:51Z,42.805,6.029,13.3042,4.60132,2470.833,2024-5-05T03:21:33Z
2024-05-05T01:21:54Z,42.805,6.029,13.3048,4.60133,2470.833,2024-5-05T03:24:36Z
2024-05-05T01:24:58Z,42.805,6.029,13.3042,4.60132,2470.857,2024-5-05T03:27:39Z
2024-05-05T01:28:01Z,42.805,6.029,13.3043,4.60132,2470.866,2024-5-05T03:30:42Z
2024-05-05T01:31:04Z,42.805,6.029,13.3043,4.60133,2470.833,2024-5-05T03:33:45Z
2024-05-05T01:34:07Z,42.805,6.029,13.3043,4.60132,2470.871,2024-5-05T03:36:49Z
2024-05-05T01:37:10Z,42.805,6.029,13.3044,4.60132,2470.88,2024-5-05T03:39:52Z
2024-05-05T01:40:13Z,42.805,6.029,13.3046,4.60132,2470.894,2024-5-05T03:42:55Z
2024-05-05T01:43:16Z,42.805,6.029,13.3042,4.60132,2470.871,2024-5-05T03:45:58Z
2024-05-05T01:46:19Z,42.805,6.029,13.3042,4.60132,2470.871,2024-5-05T03:49:01Z
2024-05-05T01:49:22Z,42.805,6.029,13.3046,4.60134,2470.847,2024-5-05T03:52:04Z
2024-05-05T01:52:25Z,42.805,6.029,13.3043,4.60133,2470.88,2024-5-05T03:55:07Z
2024-05-05T01:55:28Z,42.805,6.029,13.3045,4.60133,2470.88,2024-5-05T03:58:10Z
2024-05-05T01:58:31Z,42.805,6.029,13.3046,4.60134,2470.904,2024-5-05T04:01:13Z
2024-05-05T02:01:33Z,42.805,6.029,13.3048,4.60135,2470.904,2024-5-05T04:04:15Z
2024-05-05T02:04:36Z,42.805,6.029,13.3042,4.60132,2470.88,2024-5-05T04:07:18Z
2024-05-05T02:07:39Z,42.805,6.029,13.3043,4.60135,2470.904,2024-5-05T04:10:21Z
2024-05-05T02:10:42Z,42.805,6.029,13.3047,4.60133,2470.904,2024-5-05T04:13:24Z
2024-05-05T02:13:45Z,42.805,6.029,13.3043,4.60134,2470.88,2024-5-05T04:16:27Z
2024-05-05T02:16:48Z,42.805,6.029,13.3044,4.60134,2470.904,2024-5-05T04:19:30Z
2024-05-05T02:19:51Z,42.805,6.029,13.3042,4.60134,2470.94,2024-5-05T04:22:33Z
2024-05-05T02:22:54Z,42.805,6.029,13.3045,4.60135,2470.927,2024-5-05T04:25:36Z
2024-05-05T02:25:58Z,42.805,6.029,13.3041,4.60133,2470.927,2024-5-05T04:28:39Z
2024-05-05T02:29:01Z,42.805,6.029,13.3044,4.60133,2470.927,2024-5-05T04:31:42Z
2024-05-05T02:32:04Z,42.805,6.029,13.3046,4.60133,2470.904,2024-5-05T04:34:46Z
2024-05-05T02:35:07Z,42.805,6.029,13.3046,4.60133,2470.94,2024-5-05T04:37:49Z
2024-05-05T02:38:10Z,42.805,6.029,13.3040,4.60135,2470.927,2024-5-05T04:40:52Z
2024-05-05T02:41:13Z,42.805,6.029,13.3043,4.60133,2470.964,2024-5-05T04:43:55Z
2024-05-05T02:44:16Z,42.805,6.029,13.3046,4.60134,2470.94,2024-5-05T04:46:58Z
2024-05-05T02:47:19Z,42.805,6.029,13.3043,4.60135,2470.94,2024-5-05T04:50:01Z
2024-05-05T02:50:22Z,42.805,6.029,13.3044,4.60134,2470.95,2024-5-05T04:53:04Z
2024-05-05T02:53:25Z,42.805,6.029,13.3042,4.60133,2470.95,2024-5-05T04:56:07Z
2024-05-05T02:56:28Z,42.805,6.029,13.3046,4.60134,2470.94,2024-5-05T04:59:10Z
2024-05-05T02:59:31Z,42.805,6.029,13.3044,4.60135,2470.964,2024-5-05T05:02:13Z
2024-05-05T03:02:34Z,42.805,6.029,13.3041,4.60134,2470.95,2024-5-05T05:05:16Z
2024-05-05T03:05:38Z,42.805,6.029,13.3042,4.60133,2470.987,2024-5-05T05:08:19Z
2024-05-05T03:08:41Z,42.805,6.029,13.3043,4.60134,2470.964,2024-5-05T05:11:22Z
2024-05-05T03:11:44Z,42.805,6.029,13.3043,4.60135,2470.973,2024-5-05T05:14:25Z
2024-05-05T03:14:47Z,42.805,6.029,13.3043,4.60134,2471.01,2024-5-05T05:17:29Z
2024-05-05T03:17:50Z,42.805,6.029,13.3047,4.60134,2470.997,2024-5-05T05:20:32Z
2024-05-05T03:20:53Z,42.805,6.029,13.3043,4.60134,2470.95,2024-5-05T05:23:35Z
2024-05-05T03:23:56Z,42.805,6.029,13.3048,4.60135,2470.973,2024-5-05T05:26:38Z
2024-05-05T03:26:59Z,42.805,6.029,13.3043,4.60135,2470.973,2024-5-05T05:29:41Z
2024-05-05T03:30:02Z,42.805,6.029,13.3046,4.60132,2470.95,2024-5-05T05:32:44Z
2024-05-05T03:33:05Z,42.805,6.029,13.3043,4.60134,2470.987,2024-5-05T05:35:47Z
2024-05-05T03:36:08Z,42.805,6.029,13.3042,4.60133,2471.01,2024-5-05T05:38:50Z
2024-05-05T03:39:11Z,42.805,6.029,13.3041,4.60134,2470.95,2024-5-05T05:41:53Z
2024-05-05T03:42:14Z,42.805,6.029,13.3044,4.60135,2470.973,2024-5-05T05:44:56Z
2024-05-05T03:45:18Z,42.805,6.029,13.3044,4.60135,2470.973,2024-5-05T05:47:59Z
2024-05-05T03:48:21Z,42.805,6.029,13.3047,4.60134,2470.964,2024-5-05T05:51:02Z
2024-05-05T03:51:24Z,42.805,6.029,13.3041,4.60135,2470.997,2024-5-05T05:54:06Z
2024-05-05T03:54:27Z,42.805,6.029,13.3043,4.60134,2470.997,2024-5-05T05:57:09Z
2024-05-05T03:57:30Z,42.805,6.029,13.3042,4.60134,2470.987,2024-5-05T06:00:12Z
2024-05-05T04:00:34Z,42.805,6.029,13.3048,4.60134,2470.997,2024-5-05T06:03:16Z
2024-05-05T04:03:38Z,42.805,6.029,13.3043,4.60135,2470.973,2024-5-05T06:06:19Z
2024-05-05T04:06:41Z,42.805,6.029,13.3043,4.60135,2470.987,2024-5-05T06:09:22Z
2024-05-05T04:09:44Z,42.805,6.029,13.3048,4.60134,2470.997,2024-5-05T06:12:25Z
2024-05-05T04:12:47Z,42.805,6.029,13.3046,4.60133,2471.01,2024-5-05T06:15:29Z
2024-05-05T04:15:50Z,42.805,6.029,13.3044,4.60135,2471.02,2024-5-05T06:18:32Z
2024-05-05T04:18:53Z,42.805,6.029,13.3044,4.60133,2470.973,2024-5-05T06:21:35Z
2024-05-05T04:21:56Z,42.805,6.029,13.3041,4.60133,2470.997,2024-5-05T06:24:38Z
2024-05-05T04:24:59Z,42.805,6.029,13.3041,4.60134,2470.997,2024-5-05T06:27:41Z
2024-05-05T04:28:02Z,42.805,6.029,13.3044,4.60135,2471.01,2024-5-05T06:30:44Z
2024-05-05T04:31:05Z,42.805,6.029,13.3042,4.60133,2470.997,2024-5-05T06:33:47Z
2024-05-05T04:34:08Z,42.805,6.029,13.3044,4.60134,2470.997,2024-5-05T06:36:50Z
2024-05-05T04:37:11Z,42.805,6.029,13.3048,4.60134,2470.987,2024-5-05T06:39:53Z
2024-05-05T04:40:14Z,42.805,6.029,13.3045,4.60135,2471.034,2024-5-05T06:42:56Z
2024-05-05T04:43:18Z,42.805,6.029,13.3043,4.60133,2470.997,2024-5-05T06:45:59Z
2024-05-05T04:46:21Z,42.805,6.029,13.3045,4.60135,2471.01,2024-5-05T06:49:02Z
2024-05-05T04:49:24Z,42.805,6.029,13.3045,4.60133,2470.997,2024-5-05T06:52:05Z
2024-05-05T04:52:27Z,42.805,6.029,13.3045,4.60135,2470.973,2024-5-05T06:55:09Z
2024-05-05T04:55:30Z,42.805,6.029,13.3045,4.60135,2471.01,2024-5-05T06:58:12Z
2024-05-05T04:58:33Z,42.805,6.029,13.3046,4.60133,2470.997,2024-5-05T07:01:15Z
2024-05-05T05:01:36Z,42.805,6.029,13.3043,4.60135,2470.997,2024-5-05T07:04:18Z
2024-05-05T05:04:39Z,42.805,6.029,13.3041,4.60134,2471.01,2024-5-05T07:07:21Z
2024-05-05T05:07:42Z,42.805,6.029,13.3043,4.60134,2471.043,2024-5-05T07:10:24Z
2024-05-05T05:10:45Z,42.805,6.029,13.3040,4.60134,2470.973,2024-5-05T07:13:27Z
2024-05-05T05:13:48Z,42.805,6.029,13.3042,4.60134,2471.02,2024-5-05T07:16:30Z
2024-05-05T05:16:51Z,42.805,6.029,13.3041,4.60135,2470.997,2024-5-05T07:19:33Z
2024-05-05T05:19:54Z,42.805,6.029,13.3043,4.60135,2470.997,2024-5-05T07:22:36Z
2024-05-05T05:22:58Z,42.805,6.029,13.3046,4.60135,2471.01,2024-5-05T07:25:39Z
2024-05-05T05:26:01Z,42.805,6.029,13.3042,4.60135,2470.987,2024-5-05T07:28:42Z
2024-05-05T05:29:04Z,42.805,6.029,13.3046,4.60135,2470.997,2024-5-05T07:31:46Z
2024-05-05T05:32:07Z,42.805,6.029,13.3047,4.60134,2470.973,2024-5-05T07:34:49Z
2024-05-05T05:35:10Z,42.805,6.029,13.3043,4.60135,2470.973,2024-5-05T07:37:52Z
2024-05-05T05:38:13Z,42.805,6.029,13.3044,4.60135,2470.997,2024-5-05T07:40:55Z
2024-05-05T05:41:16Z,42.805,6.029,13.3046,4.60135,2471.01,2024-5-05T07:43:58Z
2024-05-05T05:44:19Z,42.805,6.029,13.3046,4.60134,2470.997,2024-5-05T07:47:01Z
2024-05-05T05:47:22Z,42.805,6.029,13.3045,4.60137,2470.973,2024-5-05T07:50:04Z
2024-05-05T05:50:25Z,42.805,6.029,13.3043,4.60134,2470.973,2024-5-05T07:53:07Z
2024-05-05T05:53:28Z,42.805,6.029,13.3044,4.60135,2470.973,2024-5-05T07:56:10Z
2024-05-05T05:56:31Z,42.805,6.029,13.3044,4.60135,2470.997,2024-5-05T07:59:13Z
2024-05-05T05:59:34Z,42.805,6.029,13.3048,4.60135,2471.024,2024-5-05T08:02:16Z
2024-05-05T06:02:36Z,42.805,6.029,13.3046,4.60135,2470.987,2024-5-05T08:05:18Z
2024-05-05T06:05:39Z,42.805,6.029,13.3045,4.60134,2471.01,2024-5-05T08:08:21Z
2024-05-05T06:08:42Z,42.805,6.029,13.3046,4.60134,2470.95,2024-5-05T08:11:24Z
2024-05-05T06:11:46Z,42.805,6.029,13.3045,4.60135,2471.01,2024-5-05T08:14:27Z
2024-05-05T06:14:49Z,42.805,6.029,13.3044,4.60135,2470.997,2024-5-05T08:17:30Z
2024-05-05T06:17:52Z,42.805,6.029,13.3048,4.60135,2470.987,2024-5-05T08:20:33Z
2024-05-05T06:20:55Z,42.805,6.029,13.3044,4.60135,2470.95,2024-5-05T08:23:37Z
2024-05-05T06:23:58Z,42.805,6.029,13.3046,4.60135,2471.01,2024-5-05T08:26:40Z
2024-05-05T06:27:01Z,42.805,6.029,13.3046,4.60135,2471.01,2024-5-05T08:29:43Z
2024-05-05T06:30:04Z,42.805,6.029,13.3046,4.60134,2470.997,2024-5-05T08:32:46Z
2024-05-05T06:33:07Z,42.805,6.029,13.3046,4.60135,2470.973,2024-5-05T08:35:49Z
2024-05-05T06:36:10Z,42.805,6.029,13.3043,4.60136,2470.987,2024-5-05T08:38:52Z
2024-05-05T06:39:13Z,42.805,6.029,13.3047,4.60135,2470.964,2024-5-05T08:41:55Z
2024-05-05T06:42:16Z,42.805,6.029,13.3046,4.60136,2470.987,2024-5-05T08:44:58Z
2024-05-05T06:45:19Z,42.805,6.029,13.3046,4.60135,2470.997,2024-5-05T08:48:01Z
2024-05-05T06:48:22Z,42.805,6.029,13.3046,4.60134,2470.973,2024-5-05T08:51:04Z
2024-05-05T06:51:25Z,42.805,6.029,13.3046,4.60135,2470.95,2024-5-05T08:54:07Z
2024-05-05T06:54:29Z,42.805,6.029,13.3043,4.60136,2470.973,2024-5-05T08:57:10Z
2024-05-05T06:57:32Z,42.805,6.029,13.3043,4.60135,2470.927,2024-5-05T09:00:13Z
2024-05-05T07:00:35Z,42.805,6.029,13.3047,4.60137,2470.987,2024-5-05T09:03:17Z
2024-05-05T07:03:38Z,42.805,6.029,13.3047,4.60135,2470.973,2024-5-05T09:06:20Z
2024-05-05T07:06:41Z,42.805,6.029,13.3047,4.60137,2470.973,2024-5-05T09:09:23Z
2024-05-05T07:09:44Z,42.805,6.029,13.3044,4.60135,2470.95,2024-5-05T09:12:26Z
2024-05-05T07:12:47Z,42.805,6.029,13.3051,4.60137,2470.973,2024-5-05T09:15:29Z
2024-05-05T07:15:50Z,42.805,6.029,13.3046,4.60136,2470.973,2024-5-05T09:18:32Z
2024-05-05T07:18:53Z,42.805,6.029,13.3048,4.60137,2470.973,2024-5-05T09:21:35Z
2024-05-05T07:21:56Z,42.805,6.029,13.3045,4.60135,2470.95,2024-5-05T09:24:38Z
2024-05-05T07:24:59Z,42.805,6.029,13.3041,4.60137,2470.964,2024-5-05T09:27:41Z
2024-05-05T07:28:02Z,42.805,6.029,13.3047,4.60135,2470.964,2024-5-05T09:30:44Z
2024-05-05T07:31:05Z,42.805,6.029,13.3046,4.60135,2470.95,2024-5-05T09:33:47Z
2024-05-05T07:34:09Z,42.805,6.029,13.3044,4.60137,2470.95,2024-5-05T09:36:50Z
2024-05-05T07:37:12Z,42.805,6.029,13.3046,4.60137,2470.917,2024-5-05T09:39:53Z
2024-05-05T07:40:15Z,42.805,6.029,13.3042,4.60137,2470.927,2024-5-05T09:42:57Z
2024-05-05T07:43:18Z,42.805,6.029,13.3048,4.60135,2470.959,2024-5-05T09:46:00Z
2024-05-05T07:46:21Z,42.805,6.029,13.3050,4.60138,2470.94,2024-5-05T09:49:03Z
2024-05-05T07:49:24Z,42.805,6.029,13.3046,4.60137,2470.927,2024-5-05T09:52:06Z
2024-05-05T07:52:27Z,42.805,6.029,13.3049,4.60136,2470.927,2024-5-05T09:55:09Z
2024-05-05T07:55:30Z,42.805,6.029,13.3045,4.60136,2470.917,2024-5-05T09:58:12Z
2024-05-05T07:58:33Z,42.805,6.029,13.3045,4.60137,2470.94,2024-5-05T10:01:15Z
2024-05-05T08:01:36Z,42.805,6.029,13.3046,4.60137,2470.904,2024-5-05T10:04:18Z
2024-05-05T08:04:39Z,42.805,6.029,13.3051,4.60135,2470.94,2024-5-05T10:07:21Z
2024-05-05T08:07:42Z,42.805,6.029,13.3046,4.60137,2470.927,2024-5-05T10:10:24Z
2024-05-05T08:10:45Z,42.805,6.029,13.3046,4.60135,2470.917,2024-5-05T10:13:27Z
2024-05-05T08:13:49Z,42.805,6.029,13.3048,4.60135,2470.904,2024-5-05T10:16:30Z
2024-05-05T08:16:52Z,42.805,6.029,13.3045,4.60136,2470.917,2024-5-05T10:19:33Z
2024-05-05T08:19:55Z,42.805,6.029,13.3041,4.60136,2470.904,2024-5-05T10:22:37Z
2024-05-05T08:22:58Z,42.805,6.029,13.3048,4.60135,2470.904,2024-5-05T10:25:40Z
2024-05-05T08:26:01Z,42.805,6.029,13.3042,4.60135,2470.904,2024-5-05T10:28:43Z
2024-05-05T08:29:04Z,42.805,6.029,13.3043,4.60135,2470.904,2024-5-05T10:31:46Z
2024-05-05T08:32:07Z,42.805,6.029,13.3046,4.60135,2470.917,2024-5-05T10:34:49Z
2024-05-05T08:35:10Z,42.805,6.029,13.3042,4.60137,2470.833,2024-5-05T10:37:52Z
2024-05-05T08:38:13Z,42.805,6.029,13.3047,4.60135,2470.904,2024-5-05T10:40:55Z
2024-05-05T08:41:16Z,42.805,6.029,13.3046,4.60135,2470.88,2024-5-05T10:43:58Z
2024-05-05T08:44:19Z,42.805,6.029,13.3043,4.60136,2470.904,2024-5-05T10:47:01Z
2024-05-05T08:47:22Z,42.805,6.029,13.3043,4.60135,2470.857,2024-5-05T10:50:04Z
2024-05-05T08:50:26Z,42.805,6.029,13.3049,4.60136,2470.871,2024-5-05T10:53:07Z
2024-05-05T08:53:29Z,42.805,6.029,13.3044,4.60135,2470.904,2024-5-05T10:56:10Z
2024-05-05T08:56:32Z,42.805,6.029,13.3046,4.60136,2470.894,2024-5-05T10:59:14Z
2024-05-05T08:59:35Z,42.805,6.029,13.3041,4.60135,2470.894,2024-5-05T11:02:17Z
2024-05-05T09:02:38Z,42.805,6.029,13.3046,4.60137,2470.88,2024-5-05T11:05:20Z
2024-05-05T09:05:41Z,42.805,6.029,13.3041,4.60137,2470.88,2024-5-05T11:08:23Z
2024-05-05T09:08:44Z,42.805,6.029,13.3044,4.60135,2470.833,2024-5-05T11:11:26Z
2024-05-05T09:11:47Z,42.805,6.029,13.3046,4.60137,2470.843,2024-5-05T11:14:29Z
2024-05-05T09:14:50Z,42.805,6.029,13.3045,4.60136,2470.904,2024-5-05T11:17:32Z
2024-05-05T09:17:53Z,42.805,6.029,13.3046,4.60135,2470.833,2024-5-05T11:20:35Z
2024-05-05T09:20:56Z,42.805,6.029,13.3046,4.60137,2470.824,2024-5-05T11:23:38Z
2024-05-05T09:23:59Z,42.805,6.029,13.3044,4.60139,2470.857,2024-5-05T11:26:41Z
2024-05-05T09:27:03Z,42.805,6.029,13.3051,4.60136,2470.857,2024-5-05T11:29:44Z
2024-05-05T09:30:06Z,42.805,6.029,13.3045,4.60135,2470.857,2024-5-05T11:32:47Z
2024-05-05T09:33:09Z,42.805,6.029,13.3046,4.60135,2470.857,2024-5-05T11:35:51Z
2024-05-05T09:36:12Z,42.805,6.029,13.3046,4.60135,2470.833,2024-5-05T11:38:54Z
2024-05-05T09:39:15Z,42.805,6.029,13.3043,4.60135,2470.833,2024-5-05T11:41:57Z
2024-05-05T09:42:18Z,42.805,6.029,13.3046,4.60135,2470.871,2024-5-05T11:45:00Z
2024-05-05T09:45:21Z,42.805,6.029,13.3041,4.60135,2470.833,2024-5-05T11:48:03Z
2024-05-05T09:48:24Z,42.805,6.029,13.3046,4.60136,2470.824,2024-5-05T11:51:06Z
2024-05-05T09:51:27Z,42.805,6.029,13.3044,4.60134,2470.833,2024-5-05T11:54:09Z
2024-05-05T09:54:30Z,42.805,6.029,13.3043,4.60136,2470.833,2024-5-05T11:57:12Z
2024-05-05T09:57:33Z,42.805,6.029,13.3046,4.60135,2470.824,2024-5-05T12:00:15Z
2024-05-05T10:00:36Z,42.805,6.029,13.3043,4.60133,2470.81,2024-5-05T12:03:18Z
2024-05-05T10:03:39Z,42.805,6.029,13.3043,4.60134,2470.787,2024-5-05T12:06:21Z
2024-05-05T10:06:42Z,42.805,6.029,13.3043,4.60134,2470.81,2024-5-05T12:09:24Z
2024-05-05T10:09:45Z,42.805,6.029,13.3045,4.60135,2470.81,2024-5-05T12:12:27Z
2024-05-05T10:12:48Z,42.805,6.029,13.3046,4.60134,2470.8,2024-5-05T12:15:30Z
2024-05-05T10:15:51Z,42.805,6.029,13.3046,4.60133,2470.81,2024-5-05T12:18:33Z
2024-05-05T10:18:54Z,42.805,6.029,13.3039,4.60135,2470.847,2024-5-05T12:21:36Z
2024-05-05T10:21:57Z,42.805,6.029,13.3044,4.60135,2470.81,2024-5-05T12:24:39Z
2024-05-05T10:25:00Z,42.805,6.029,13.3046,4.60133,2470.787,2024-5-05T12:27:42Z
2024-05-05T10:28:03Z,42.805,6.029,13.3041,4.60135,2470.763,2024-5-05T12:30:45Z
2024-05-05T10:31:07Z,42.805,6.029,13.3041,4.60132,2470.763,2024-5-05T12:33:48Z
2024-05-05T10:34:10Z,42.805,6.029,13.3039,4.60133,2470.787,2024-5-05T12:36:51Z
2024-05-05T10:37:13Z,42.805,6.029,13.3041,4.60132,2470.787,2024-5-05T12:39:55Z
2024-05-05T10:40:16Z,42.805,6.029,13.3041,4.60130,2470.787,2024-5-05T12:42:58Z
2024-05-05T10:43:19Z,42.805,6.029,13.3040,4.60132,2470.787,2024-5-05T12:46:01Z
2024-05-05T10:46:22Z,42.805,6.029,13.3039,4.60132,2470.8,2024-5-05T12:49:04Z
2024-05-05T10:49:25Z,42.805,6.029,13.3041,4.60131,2470.787,2024-5-05T12:52:07Z
2024-05-05T10:52:28Z,42.805,6.029,13.3043,4.60134,2470.777,2024-5-05T12:55:10Z
2024-05-05T10:55:31Z,42.805,6.029,13.3045,4.60133,2470.787,2024-5-05T12:58:13Z
2024-05-05T10:58:34Z,42.805,6.029,13.3042,4.60135,2470.763,2024-5-05T13:01:16Z
2024-05-05T11:01:37Z,42.805,6.029,13.3044,4.60132,2470.777,2024-5-05T13:04:19Z
2024-05-05T11:04:40Z,42.805,6.029,13.3045,4.60132,2470.763,2024-5-05T13:07:22Z
2024-05-05T11:07:44Z,42.805,6.029,13.3041,4.60132,2470.763,2024-5-05T13:10:25Z
2024-05-05T11:10:47Z,42.805,6.029,13.3042,4.60133,2470.763,2024-5-05T13:13:28Z
2024-05-05T11:13:50Z,42.805,6.029,13.3042,4.60134,2470.763,2024-5-05T13:16:31Z
2024-05-05T11:16:53Z,42.805,6.029,13.3041,4.60132,2470.787,2024-5-05T13:19:35Z
2024-05-05T11:19:56Z,42.805,6.029,13.3047,4.60134,2470.787,2024-5-05T13:22:38Z
2024-05-05T11:22:59Z,42.805,6.029,13.3043,4.60132,2470.74,2024-5-05T13:25:41Z
2024-05-05T11:26:02Z,42.805,6.029,13.3041,4.60131,2470.763,2024-5-05T13:28:44Z
2024-05-05T11:29:05Z,42.805,6.029,13.3041,4.60132,2470.763,2024-5-05T13:31:47Z
2024-05-05T11:32:08Z,42.805,6.029,13.3041,4.60133,2470.763,2024-5-05T13:34:50Z
2024-05-05T11:35:11Z,42.805,6.029,13.3039,4.60132,2470.74,2024-5-05T13:37:53Z
2024-05-05T11:38:14Z,42.805,6.029,13.3038,4.60133,2470.777,2024-5-05T13:40:56Z
2024-05-05T11:41:17Z,42.805,6.029,13.3045,4.60132,2470.763,2024-5-05T13:43:59Z
2024-05-05T11:44:21Z,42.805,6.029,13.3039,4.60132,2470.763,2024-5-05T13:47:02Z
2024-05-05T11:47:24Z,42.805,6.029,13.3041,4.60130,2470.74,2024-5-05T13:50:05Z
2024-05-05T11:50:27Z,42.805,6.029,13.3045,4.60130,2470.787,2024-5-05T13:53:09Z
2024-05-05T11:53:30Z,42.805,6.029,13.3043,4.60132,2470.763,2024-5-05T13:56:12Z
2024-05-05T11:56:33Z,42.805,6.029,13.3038,4.60131,2470.777,2024-5-05T13:59:15Z
2024-05-05T11:59:36Z,42.805,6.029,13.3042,4.60132,2470.8,2024-5-05T14:02:18Z
2024-05-05T12:02:39Z,42.805,6.029,13.3043,4.60132,2470.74,2024-5-05T14:05:21Z
2024-05-05T12:05:42Z,42.805,6.029,13.3041,4.60131,2470.777,2024-5-05T14:08:24Z
2024-05-05T12:08:45Z,42.805,6.029,13.3038,4.60134,2470.787,2024-5-05T14:11:27Z
2024-05-05T12:11:48Z,42.805,6.029,13.3040,4.60132,2470.754,2024-5-05T14:14:30Z
2024-05-05T12:14:51Z,42.805,6.029,13.3038,4.60132,2470.754,2024-5-05T14:17:33Z
2024-05-05T12:17:54Z,42.805,6.029,13.3042,4.60132,2470.777,2024-5-05T14:20:36Z
2024-05-05T12:20:58Z,42.805,6.029,13.3041,4.60131,2470.763,2024-5-05T14:23:39Z
2024-05-05T12:24:01Z,42.805,6.029,13.3040,4.60130,2470.763,2024-5-05T14:26:42Z
2024-05-05T12:27:04Z,42.805,6.029,13.3039,4.60132,2470.754,2024-5-05T14:29:45Z
2024-05-05T12:30:07Z,42.805,6.029,13.3043,4.60134,2470.74,2024-5-05T14:32:49Z
2024-05-05T12:33:10Z,42.805,6.029,13.3043,4.60131,2470.74,2024-5-05T14:35:52Z
2024-05-05T12:36:13Z,42.805,6.029,13.3041,4.60134,2470.754,2024-5-05T14:38:55Z
2024-05-05T12:39:16Z,42.805,6.029,13.3043,4.60132,2470.763,2024-5-05T14:41:58Z
2024-05-05T12:42:19Z,42.805,6.029,13.3041,4.60131,2470.763,2024-5-05T14:45:01Z
2024-05-05T12:45:22Z,42.805,6.029,13.3043,4.60132,2470.777,2024-5-05T14:48:04Z
2024-05-05T12:48:25Z,42.805,6.029,13.3042,4.60132,2470.777,2024-5-05T14:51:07Z
2024-05-05T12:51:28Z,42.805,6.029,13.3042,4.60132,2470.763,2024-5-05T14:54:10Z
2024-05-05T12:54:31Z,42.805,6.029,13.3043,4.60130,2470.763,2024-5-05T14:57:13Z
2024-05-05T12:57:34Z,42.805,6.029,13.3043,4.60131,2470.763,2024-5-05T15:00:16Z
2024-05-05T13:00:38Z,42.805,6.029,13.3043,4.60133,2470.763,2024-5-05T15:03:19Z
2024-05-05T13:03:41Z,42.805,6.029,13.3045,4.60130,2470.763,2024-5-05T15:06:22Z
2024-05-05T13:06:44Z,42.805,6.029,13.3043,4.60130,2470.777,2024-5-05T15:09:26Z
2024-05-05T13:09:47Z,42.805,6.029,13.3041,4.60130,2470.726,2024-5-05T15:12:29Z
2024-05-05T13:12:50Z,42.805,6.029,13.3041,4.60130,2470.763,2024-5-05T15:15:32Z
2024-05-05T13:15:53Z,42.805,6.029,13.3043,4.60129,2470.787,2024-5-05T15:18:35Z
2024-05-05T13:18:56Z,42.805,6.029,13.3040,4.60131,2470.8,2024-5-05T15:21:38Z
2024-05-05T13:21:59Z,42.805,6.029,13.3042,4.60130,2470.787,2024-5-05T15:24:41Z
2024-05-05T13:25:02Z,42.805,6.029,13.3041,4.60130,2470.777,2024-5-05T15:27:44Z
2024-05-05T13:28:05Z,42.805,6.029,13.3042,4.60130,2470.777,2024-5-05T15:30:47Z
2024-05-05T13:31:08Z,42.805,6.029,13.3043,4.60130,2470.763,2024-5-05T15:33:50Z
2024-05-05T13:34:11Z,42.805,6.029,13.3043,4.60130,2470.726,2024-5-05T15:36:53Z
2024-05-05T13:37:15Z,42.805,6.029,13.3041,4.60131,2470.787,2024-5-05T15:39:56Z
2024-05-05T13:40:18Z,42.805,6.029,13.3038,4.60131,2470.787,2024-5-05T15:42:59Z
2024-05-05T13:43:21Z,42.805,6.029,13.3038,4.60133,2470.81,2024-5-05T15:46:02Z
2024-05-05T13:46:24Z,42.805,6.029,13.3043,4.60132,2470.81,2024-5-05T15:49:06Z
2024-05-05T13:49:27Z,42.805,6.029,13.3043,4.60132,2470.787,2024-5-05T15:52:09Z
2024-05-05T13:52:30Z,42.805,6.029,13.3042,4.60132,2470.787,2024-5-05T15:55:12Z
2024-05-05T13:55:33Z,42.805,6.029,13.3041,4.60132,2470.81,2024-5-05T15:58:15Z
2024-05-05T13:58:36Z,42.805,6.029,13.3042,4.60131,2470.8,2024-5-05T16:01:18Z
2024-05-05T14:01:39Z,42.805,6.029,13.3042,4.60131,2470.81,2024-5-05T16:04:21Z
2024-05-05T14:04:42Z,42.805,6.029,13.3043,4.60132,2470.824,2024-5-05T16:07:24Z
2024-05-05T14:07:45Z,42.805,6.029,13.3042,4.60131,2470.81,2024-5-05T16:10:27Z
2024-05-05T14:10:48Z,42.805,6.029,13.3041,4.60132,2470.833,2024-5-05T16:13:30Z
2024-05-05T14:13:51Z,42.805,6.029,13.3040,4.60132,2470.833,2024-5-05T16:16:33Z
2024-05-05T14:16:55Z,42.805,6.029,13.3043,4.60131,2470.847,2024-5-05T16:19:36Z
2024-05-05T14:19:58Z,42.805,6.029,13.3041,4.60133,2470.847,2024-5-05T16:22:39Z
2024-05-05T14:23:01Z,42.805,6.029,13.3039,4.60131,2470.833,2024-5-05T16:25:43Z
2024-05-05T14:26:04Z,42.805,6.029,13.3041,4.60131,2470.833,2024-5-05T16:28:46Z
2024-05-05T14:29:07Z,42.805,6.029,13.3044,4.60132,2470.833,2024-5-05T16:31:49Z
2024-05-05T14:32:10Z,42.805,6.029,13.3046,4.60132,2470.833,2024-5-05T16:34:52Z
2024-05-05T14:35:13Z,42.805,6.029,13.3039,4.60130,2470.833,2024-5-05T16:37:55Z
2024-05-05T14:38:16Z,42.805,6.029,13.3043,4.60132,2470.81,2024-5-05T16:40:58Z
2024-05-05T14:41:19Z,42.805,6.029,13.3043,4.60130,2470.81,2024-5-05T16:44:01Z
2024-05-05T14:44:22Z,42.805,6.029,13.3040,4.60131,2470.857,2024-5-05T16:47:04Z
2024-05-05T14:47:25Z,42.805,6.029,13.3040,4.60130,2470.833,2024-5-05T16:50:07Z
2024-05-05T14:50:28Z,42.805,6.029,13.3041,4.60131,2470.833,2024-5-05T16:53:10Z
2024-05-05T14:53:31Z,42.805,6.029,13.3039,4.60131,2470.833,2024-5-05T16:56:13Z
2024-05-05T14:56:35Z,42.805,6.029,13.3039,4.60129,2470.833,2024-5-05T16:59:16Z
2024-05-05T14:59:38Z,42.805,6.029,13.3041,4.60129,2470.857,2024-5-05T17:02:19Z
2024-05-05T15:02:41Z,42.805,6.029,13.3043,4.60132,2470.833,2024-5-05T17:05:23Z
2024-05-05T15:05:44Z,42.805,6.029,13.3041,4.60130,2470.833,2024-5-05T17:08:26Z
2024-05-05T15:08:47Z,42.805,6.029,13.3041,4.60131,2470.847,2024-5-05T17:11:29Z
2024-05-05T15:11:50Z,42.805,6.029,13.3042,4.60130,2470.871,2024-5-05T17:14:32Z